"Pseudo-MPEC" for P11bV3f
Created 2021 Jan 16 20:07:15 UT using Find_Orb
Click here for an explanation of pseudo-MPECs
Astrometry: P11bV3f C2021 01 12C\uQrdR@DD0ae6IT0d'
AstrometryH`X
redacted;bL
click#RL$
F51 P11bV3f C2021 01 12_ItuDKm
hereb$3-CnB4qvD[#`]cryivRpT7?
forNgyZWn3Zk[%,x
F51 P11bV3f C2021 01 12IAVd$s\X=203f!,nh$H
explanationI+%qr_b.;h:nk6J/nwlL:X
F51 P11bV3f KC2021 01 13.48164510 23 20.63 +46 48 36.3 ~1DCM 22.02GVNEOCPI52 P11bV3f KC2021 01 13.49396110 23 19.27 +46 48 39.4 ~1DCM 21.08GVNEOCPI52 P11bV3f KC2021 01 13.50010610 23 18.64 +46 48 40.2 ~1DCM 21.07GVNEOCPI52 P11bV3f KC2021 01 16.29917810 18 11.92 +46 56 54.9 ~1G7b 21.79GVNEOCPV06 P11bV3f KC2021 01 16.30155610 18 11.61 +46 56 55.2 ~1G7b 22.02GVNEOCPV06 P11bV3f KC2021 01 16.30393210 18 11.31 +46 56 56.1 ~1G7b 21.54GVNEOCPV06 P11bV3f KC2021 01 16.30630810 18 11.06 +46 56 56.2 ~1G7b 21.66GVNEOCPV06 Station data: (F51) Pan-STARRS 1, Haleakala (N20.707235 W156.255910) US/Hawaii. Observers N. Primak, A. Schultz, S. Watters, J. Thiel, T. Goggia. Measurer PS1 Science Consortium. 1.8-m Ritchey-Chrétien + CCD. (I52) Steward Observatory, Mt. Lemmon Station (N32.442547 W110.788920) US/Arizona. Observers T. A. Pruyne, B. M. Africano, E. J. Christensen, G. A. Farneth, D. C. Fuls, A. R. Gibbs, A. D. Grauer, H. Gröller, J. A. Johnson, R. A. Kowalski, S. M. Larson, G. J. Leonard, D. Rankin, R. L. Seaman, F. C. Shelly. 1.0-m reflector + CCD. (V06) Catalina Sky Survey-Kuiper (N32.416847 W110.732550) US/Arizona. Observers T. A. Pruyne, B. M. Africano, E. J. Christensen, G. A. Farneth, D. C. Fuls, A. R. Gibbs, A. D. Grauer, H. Gröller, J. A. Johnson, R. A. Kowalski, S. M. Larson, G. J. Leonard, D. Rankin, R. L. Seaman, F. C. Shelly. 1.55-m reflector + CCD. Orbital elements: P11bV3f Perihelion 2020 Jul 23.811184 +/- 6.24945 TT = 19:28:06 (JD 2459054.311184) Epoch 2021 Jan 16.0 TT = JDT 2459230.5 Earth MOID: 0.4452 Ma: 0.0863 M 70.00548710 +/- 2.8211314 (J2000 ecliptic) AutoNEOCP n 0.39733218 +/- 0.00323269 Peri. 33.89445 +/- 0.8872748 a 1.83245599 +/- 0.00993718 Node 353.42874 +/- 0.8404329 e 0.2257884 +/- 0.0106216 Incl. 21.61087 +/- 0.4717912 P 2.48/906.03d H 19.9 G 0.15 U 8.9 q 1.41870864 +/- 0.0139905 Q 2.24620333 +/- 0.0302601 From 10 observations 2021 Jan. 12-16; mean residual 0".17
Residuals in arcseconds: 210112 F51 .07- .00 210113 I52 .20- .37+ 210116 V06 .24- .30+ 210112 F51 .01- .03+ 210113 I52 .20+ .01- 210116 V06 .10+ .00 210112 F51 .08+ .04- 210116 V06 .21+ .10- 210113 I52 .01- .35- 210116 V06 .07- .20- Ephemerides (geocentric): Date (UTC) HH RA Dec delta r elong mag " sig PA ---- -- -- -- ------------- ----------- ------ ------ ----- --- ---- --- 2021 01 16 20 10 17 09.293 +46 58 07.80 .90727 1.7833 141.1 21.9 .426 34 2021 01 16 21 10 17 04.408 +46 58 13.25 .90721 1.7834 141.1 21.9 .452 33 2021 01 16 22 10 16 59.516 +46 58 18.66 .90716 1.7836 141.2 21.9 .479 33 2021 01 16 23 10 16 54.619 +46 58 24.02 .90710 1.7837 141.2 21.9 .506 32 2021 01 17 00 10 16 49.715 +46 58 29.34 .90705 1.7838 141.2 21.9 .534 31 2021 01 17 01 10 16 44.805 +46 58 34.61 .90699 1.7839 141.3 21.9 .562 31 2021 01 17 02 10 16 39.889 +46 58 39.83 .90694 1.7841 141.3 21.9 .591 30 2021 01 17 03 10 16 34.967 +46 58 45.02 .90688 1.7842 141.3 21.9 .620 30 2021 01 17 04 10 16 30.038 +46 58 50.15 .90683 1.7843 141.4 21.9 .650 29 2021 01 17 05 10 16 25.104 +46 58 55.25 .90678 1.7844 141.4 21.9 .680 29 2021 01 17 06 10 16 20.163 +46 59 00.29 .90672 1.7845 141.4 21.9 .711 28 2021 01 17 07 10 16 15.216 +46 59 05.30 .90667 1.7847 141.4 21.9 .742 28 2021 01 17 08 10 16 10.264 +46 59 10.25 .90662 1.7848 141.5 21.9 .773 27 2021 01 17 09 10 16 05.305 +46 59 15.17 .90657 1.7849 141.5 21.9 .805 27 2021 01 17 10 10 16 00.340 +46 59 20.03 .90651 1.7850 141.5 21.9 .838 27 2021 01 17 11 10 15 55.369 +46 59 24.85 .90646 1.7852 141.6 21.9 .871 26 2021 01 17 12 10 15 50.392 +46 59 29.63 .90641 1.7853 141.6 21.9 .905 26 2021 01 17 13 10 15 45.409 +46 59 34.36 .90636 1.7854 141.6 21.9 .939 26 2021 01 17 14 10 15 40.420 +46 59 39.04 .90631 1.7855 141.7 21.9 .973 25 2021 01 17 15 10 15 35.425 +46 59 43.68 .90626 1.7856 141.7 21.9 1.01 25 2021 01 17 16 10 15 30.425 +46 59 48.27 .90621 1.7858 141.7 21.9 1.04 25 2021 01 17 17 10 15 25.418 +46 59 52.82 .90616 1.7859 141.8 21.9 1.08 24 2021 01 17 18 10 15 20.405 +46 59 57.32 .90611 1.7860 141.8 21.9 1.12 24 2021 01 17 19 10 15 15.386 +47 00 01.77 .90606 1.7861 141.8 21.9 1.15 24 2021 01 17 20 10 15 10.362 +47 00 06.18 .90601 1.7862 141.9 21.9 1.19 24 2021 01 17 21 10 15 05.331 +47 00 10.54 .90597 1.7864 141.9 21.9 1.23 23 2021 01 17 22 10 15 00.295 +47 00 14.86 .90592 1.7865 141.9 21.9 1.27 23 2021 01 17 23 10 14 55.252 +47 00 19.12 .90587 1.7866 141.9 21.9 1.30 23 2021 01 18 00 10 14 50.204 +47 00 23.34 .90582 1.7867 142.0 21.9 1.34 23 2021 01 18 01 10 14 45.150 +47 00 27.52 .90578 1.7869 142.0 21.9 1.38 22 2021 01 18 02 10 14 40.090 +47 00 31.64 .90573 1.7870 142.0 21.9 1.42 22 2021 01 18 03 10 14 35.025 +47 00 35.72 .90568 1.7871 142.1 21.9 1.46 22 2021 01 18 04 10 14 29.953 +47 00 39.75 .90564 1.7872 142.1 21.9 1.50 22 2021 01 18 05 10 14 24.876 +47 00 43.74 .90559 1.7873 142.1 21.9 1.55 22 2021 01 18 06 10 14 19.793 +47 00 47.68 .90555 1.7875 142.2 21.9 1.59 21 2021 01 18 07 10 14 14.704 +47 00 51.57 .90550 1.7876 142.2 21.9 1.63 21 2021 01 18 08 10 14 09.610 +47 00 55.41 .90546 1.7877 142.2 21.9 1.67 21 2021 01 18 09 10 14 04.509 +47 00 59.20 .90541 1.7878 142.2 21.9 1.72 21 2021 01 18 10 10 13 59.403 +47 01 02.95 .90537 1.7880 142.3 21.9 1.76 21 2021 01 18 11 10 13 54.292 +47 01 06.65 .90532 1.7881 142.3 21.9 1.80 20 2021 01 18 12 10 13 49.174 +47 01 10.30 .90528 1.7882 142.3 21.9 1.85 20 2021 01 18 13 10 13 44.051 +47 01 13.90 .90524 1.7883 142.4 21.9 1.89 20 2021 01 18 14 10 13 38.923 +47 01 17.46 .90519 1.7884 142.4 21.9 1.94 20 2021 01 18 15 10 13 33.788 +47 01 20.96 .90515 1.7886 142.4 21.9 1.98 20 2021 01 18 16 10 13 28.648 +47 01 24.42 .90511 1.7887 142.5 21.9 2.03 19 2021 01 18 17 10 13 23.502 +47 01 27.83 .90507 1.7888 142.5 21.9 2.08 19 2021 01 18 18 10 13 18.351 +47 01 31.19 .90503 1.7889 142.5 21.9 2.12 19 2021 01 18 19 10 13 13.194 +47 01 34.50 .90499 1.7891 142.5 21.9 2.17 19